TimeEST,TemperatureF,Dew PointF,Humidity,Sea Level PressureIn,VisibilityMPH,Wind Direction,Wind SpeedMPH,Gust SpeedMPH,PrecipitationIn,Events,Conditions,WindDirDegrees,DateUTC
12:53 AM,59.0,46.0,62,30.10,10.0,North,16.1,26.5,N/A,,Overcast,10,2011-12-08 05:53:00
1:53 AM,57.9,39.9,51,30.10,10.0,NNE,17.3,21.9,N/A,,Overcast,20,2011-12-08 06:53:00
2:53 AM,55.0,37.0,51,30.11,10.0,North,15.0,24.2,N/A,,Overcast,360,2011-12-08 07:53:00
3:53 AM,53.1,37.9,57,30.12,10.0,NNE,13.8,-,N/A,,Overcast,20,2011-12-08 08:53:00
4:53 AM,51.1,37.0,59,30.14,10.0,North,13.8,-,N/A,,Overcast,10,2011-12-08 09:53:00
5:53 AM,50.0,37.0,61,30.15,10.0,NNE,12.7,-,N/A,,Overcast,20,2011-12-08 10:53:00
6:53 AM,48.9,37.9,66,30.17,10.0,NNE,12.7,18.4,N/A,,Overcast,20,2011-12-08 11:53:00
7:53 AM,48.9,37.9,66,30.19,10.0,NNE,12.7,-,N/A,,Overcast,20,2011-12-08 12:53:00
8:53 AM,50.0,39.0,66,30.20,10.0,North,13.8,-,N/A,,Overcast,10,2011-12-08 13:53:00
9:53 AM,53.1,39.9,61,30.20,10.0,NNE,9.2,-,N/A,,Clear,30,2011-12-08 14:53:00
10:53 AM,55.9,42.1,60,30.19,10.0,NE,11.5,16.1,N/A,,Clear,40,2011-12-08 15:53:00
11:53 AM,60.1,44.1,55,30.16,10.0,ENE,9.2,-,N/A,,Clear,60,2011-12-08 16:53:00
12:53 PM,64.0,46.9,54,30.13,10.0,NE,6.9,-,N/A,,Mostly Cloudy,50,2011-12-08 17:53:00
1:53 PM,66.0,50.0,56,30.09,10.0,ESE,6.9,-,N/A,,Overcast,110,2011-12-08 18:53:00
2:53 PM,66.0,51.1,59,30.09,10.0,ENE,5.8,-,N/A,,Overcast,60,2011-12-08 19:53:00
3:53 PM,66.9,54.0,63,30.09,10.0,ENE,5.8,-,N/A,,Overcast,70,2011-12-08 20:53:00
4:53 PM,66.9,54.0,63,30.09,10.0,ENE,8.1,-,N/A,,Mostly Cloudy,60,2011-12-08 21:53:00
5:08 PM,66.2,53.6,64,30.09,10.0,ENE,6.9,-,N/A,,Overcast,60,2011-12-08 22:08:00
5:53 PM,64.9,54.0,68,30.11,10.0,ENE,6.9,-,N/A,,Overcast,60,2011-12-08 22:53:00
6:53 PM,64.0,54.0,70,30.12,10.0,NE,4.6,-,N/A,,Mostly Cloudy,40,2011-12-08 23:53:00
7:53 PM,64.0,54.0,70,30.14,10.0,NNE,5.8,-,N/A,,Overcast,20,2011-12-09 00:53:00
8:53 PM,64.0,55.0,73,30.14,10.0,Calm,Calm,-,N/A,,Overcast,0,2011-12-09 01:53:00
9:10 PM,64.4,55.4,73,30.14,10.0,NNE,4.6,-,N/A,,Overcast,20,2011-12-09 02:10:00
9:53 PM,64.9,55.9,73,30.14,10.0,NNE,5.8,-,N/A,,Overcast,20,2011-12-09 02:53:00
10:53 PM,64.9,55.9,73,30.13,10.0,North,5.8,-,N/A,,Overcast,10,2011-12-09 03:53:00
11:37 PM,64.4,57.2,77,30.11,10.0,NE,6.9,-,N/A,,Overcast,50,2011-12-09 04:37:00
11:53 PM,64.0,57.0,78,30.12,10.0,NE,5.8,-,N/A,,Overcast,40,2011-12-09 04:53:00